RYR155 EDJA-LIPZ

Flight info

Callsign RYR155
Flight time N/A
Altitude 29000
Route KPT4A KPT Z999 BEMKI L607 XEBIX Y740 NATAG M738 ADOSA/N0398F190 L612 ALBET ALBET2E
Aircraft B738/M-SDE2E3FGHIRWXY/LB1

Departure

Time 2026-05-04 19:22
Airport Memmingen Allgau Airport (EDJA)

Arrival

Time N/A
Airport Venice Marco Polo Airport (LIPZ)
Time Latitude Longitude Altitude Speed Heading
2026-05-04 18:46 47.98865 10.23235 2079 ft 0 kts 49°
2026-05-04 19:17 47.98866 10.23235 2079 ft 0 kts 49°
2026-05-04 19:17 47.98866 10.23237 2079 ft 1 kts 52°
2026-05-04 19:17 47.98862 10.23286 2079 ft 10 kts 99°
2026-05-04 19:17 47.98856 10.23394 2080 ft 10 kts 77°
2026-05-04 19:18 47.98878 10.23497 2078 ft 11 kts 71°
2026-05-04 19:18 47.98910 10.23643 2073 ft 15 kts 75°
2026-05-04 19:18 47.98874 10.23734 2077 ft 10 kts 146°
2026-05-04 19:18 47.98829 10.23807 2076 ft 10 kts 82°
2026-05-04 19:19 47.98861 10.23900 2072 ft 10 kts 60°
2026-05-04 19:19 47.98900 10.24003 2072 ft 14 kts 60°
2026-05-04 19:19 47.98956 10.24149 2070 ft 18 kts 59°
2026-05-04 19:19 47.99031 10.24333 2067 ft 23 kts 59°
2026-05-04 19:20 47.99115 10.24547 2067 ft 24 kts 59°
2026-05-04 19:20 47.99199 10.24752 2066 ft 23 kts 59°
2026-05-04 19:20 47.99273 10.24938 2063 ft 20 kts 59°
2026-05-04 19:20 47.99332 10.25107 2061 ft 14 kts 77°
2026-05-04 19:21 47.99359 10.25136 2060 ft 1 kts 324°
2026-05-04 19:21 47.99354 10.25124 2061 ft 1 kts 229°
2026-05-04 19:21 47.99331 10.25082 2061 ft 11 kts 233°
2026-05-04 19:21 47.99222 10.24804 2066 ft 66 kts 239°
2026-05-04 19:22 47.98855 10.23885 2074 ft 137 kts 239°
2026-05-04 19:22 47.98271 10.22428 2306 ft 178 kts 238°
2026-05-04 19:22 47.97676 10.20788 2951 ft 175 kts 244°
2026-05-04 19:22 47.97051 10.19129 3277 ft 193 kts 242°
2026-05-04 19:23 47.96372 10.17313 3666 ft 206 kts 243°
2026-05-04 19:23 47.95654 10.15412 4117 ft 214 kts 239°
2026-05-04 19:23 47.94829 10.13521 4591 ft 221 kts 237°
2026-05-04 19:23 47.93968 10.11573 5031 ft 231 kts 234°
2026-05-04 19:24 47.92811 10.09834 5495 ft 243 kts 213°
2026-05-04 19:24 47.91272 10.08852 6001 ft 244 kts 192°
2026-05-04 19:24 47.89584 10.08821 6504 ft 245 kts 172°
2026-05-04 19:24 47.87924 10.09418 6972 ft 249 kts 157°
2026-05-04 19:25 47.86445 10.11003 6972 ft 272 kts 140°
2026-05-04 19:25 47.85046 10.12876 7767 ft 267 kts 133°
2026-05-04 19:25 47.84159 10.15261 8722 ft 264 kts 109°
2026-05-04 19:25 47.83745 10.17950 9245 ft 278 kts 105°
2026-05-04 19:26 47.83361 10.20923 9155 ft 298 kts 104°
2026-05-04 19:26 47.82672 10.23780 9030 ft 290 kts 131°
2026-05-04 19:26 47.81146 10.25528 9112 ft 282 kts 163°
2026-05-04 19:26 47.79097 10.26059 9286 ft 313 kts 172°
2026-05-04 19:27 47.76994 10.26703 10449 ft 303 kts 169°
2026-05-04 19:27 47.74986 10.27425 11628 ft 291 kts 168°
2026-05-04 19:27 47.73019 10.28156 12094 ft 290 kts 168°
2026-05-04 19:27 47.71058 10.28890 12212 ft 291 kts 168°
2026-05-04 19:28 47.69048 10.29640 12548 ft 309 kts 168°
2026-05-04 19:28 47.66874 10.30445 12722 ft 332 kts 168°
2026-05-04 19:28 47.64555 10.31303 12916 ft 353 kts 168°
2026-05-04 19:28 47.62142 10.32199 12997 ft 365 kts 168°
2026-05-04 19:29 47.59652 10.33124 13215 ft 375 kts 168°
2026-05-04 19:29 47.57085 10.34078 13557 ft 382 kts 168°
2026-05-04 19:29 47.54496 10.35039 14103 ft 383 kts 168°
2026-05-04 19:29 47.51918 10.35993 14662 ft 381 kts 168°
2026-05-04 19:30 47.49347 10.36944 15230 ft 380 kts 168°
2026-05-04 19:30 47.46778 10.37892 15647 ft 383 kts 168°
2026-05-04 19:30 47.44174 10.38850 16031 ft 386 kts 168°
2026-05-04 19:30 47.41565 10.39809 16464 ft 387 kts 168°
2026-05-04 19:31 47.38941 10.40772 16828 ft 391 kts 168°
2026-05-04 19:31 47.36321 10.41733 17195 ft 394 kts 168°
2026-05-04 19:31 47.33654 10.42711 17560 ft 396 kts 168°
2026-05-04 19:31 47.30966 10.43694 17878 ft 400 kts 168°
2026-05-04 19:32 47.28240 10.44691 18176 ft 404 kts 168°
2026-05-04 19:32 47.25504 10.45692 18562 ft 403 kts 168°
2026-05-04 19:32 47.22777 10.46688 18928 ft 405 kts 168°
2026-05-04 19:32 47.20024 10.47691 19217 ft 411 kts 168°
2026-05-04 19:33 47.17241 10.48706 19729 ft 411 kts 168°
2026-05-04 19:33 47.14463 10.49718 20183 ft 413 kts 168°
2026-05-04 19:33 47.11665 10.50735 20577 ft 416 kts 168°
2026-05-04 19:33 47.08854 10.51755 21009 ft 417 kts 168°
2026-05-04 19:34 47.06026 10.52782 21396 ft 420 kts 168°
2026-05-04 19:34 47.03189 10.53933 21605 ft 427 kts 166°
2026-05-04 19:34 47.00317 10.55234 21608 ft 437 kts 165°
2026-05-04 19:34 46.97429 10.56584 21665 ft 442 kts 164°